| time (UTC) | temp F | wind direction | speed MPH | gust MPH | rain 1hr in | rain 24hr in | rain mn in | humidity % | barometer mb |
| 20260510145053 | 62 | 283 | 2.0 | 9.0 | 0.00 | 0.00 | 0.00 | 74 | 1010.1 |
| 20260510144550 | 62 | 318 | 2.0 | 9.0 | 0.00 | 0.00 | 0.00 | 75 | 1010.0 |
| 20260510144049 | 61 | 340 | 3.0 | 6.0 | 0.00 | 0.00 | 0.00 | 76 | 1010.1 |
| 20260510143547 | 61 | 333 | 2.0 | 7.0 | 0.00 | 0.00 | 0.00 | 77 | 1010.0 |
| 20260510143051 | 61 | 295 | 2.0 | 7.0 | 0.00 | 0.00 | 0.00 | 77 | 1010.1 |
| 20260510142544 | 60 | 328 | 3.0 | 6.0 | 0.00 | 0.00 | 0.00 | 78 | 1010.0 |
| 20260510142043 | 60 | 321 | 2.0 | 6.0 | 0.00 | 0.00 | 0.00 | 78 | 1010.0 |
| 20260510141544 | 60 | 291 | 3.0 | 9.0 | 0.00 | 0.00 | 0.00 | 78 | 1009.9 |
| 20260510141040 | 60 | 343 | 4.0 | 10.0 | 0.00 | 0.00 | 0.00 | 78 | 1009.9 |
| 20260510140539 | 59 | 335 | 5.0 | 10.0 | 0.00 | 0.00 | 0.00 | 79 | 1009.7 |
| 20260510140039 | 59 | 339 | 4.0 | 10.0 | 0.00 | 0.00 | 0.00 | 79 | 1009.6 |
| 20260510135536 | 59 | 341 | 5.0 | 10.0 | 0.00 | 0.00 | 0.00 | 79 | 1009.6 |
| 20260510135036 | 59 | 335 | 3.0 | 8.0 | 0.00 | 0.00 | 0.00 | 79 | 1009.5 |
| 20260510134535 | 59 | 332 | 3.0 | 8.0 | 0.00 | 0.00 | 0.00 | 80 | 1009.4 |
| 20260510134033 | 59 | 333 | 4.0 | 8.0 | 0.00 | 0.00 | 0.00 | 80 | 1009.4 |
| 20260510133532 | 59 | 336 | 4.0 | 9.0 | 0.00 | 0.00 | 0.00 | 80 | 1009.4 |
| 20260510133031 | 59 | 293 | 3.0 | 10.0 | 0.00 | 0.00 | 0.00 | 80 | 1009.3 |
| 20260510132529 | 59 | 305 | 5.0 | 10.0 | 0.00 | 0.00 | 0.00 | 80 | 1009.3 |
| 20260510132028 | 59 | 340 | 3.0 | 9.0 | 0.00 | 0.00 | 0.00 | 79 | 1009.3 |
| 20260510131526 | 59 | 4 | 4.0 | 9.0 | 0.00 | 0.00 | 0.00 | 79 | 1009.2 |
| 20260510131025 | 59 | 291 | 3.0 | 8.0 | 0.00 | 0.00 | 0.00 | 79 | 1009.1 |
| 20260510130523 | 59 | 336 | 3.0 | 8.0 | 0.00 | 0.00 | 0.00 | 79 | 1009.1 |
| 20260510130029 | 59 | 303 | 3.0 | 8.0 | 0.00 | 0.00 | 0.00 | 78 | 1009.1 |
| 20260510125521 | 60 | 329 | 3.0 | 8.0 | 0.00 | 0.00 | 0.00 | 78 | 1009.0 |
| 20260510125020 | 60 | 299 | 3.0 | 8.0 | 0.00 | 0.00 | 0.00 | 78 | 1009.0 |
| 20260510124521 | 60 | 262 | 3.0 | 7.0 | 0.00 | 0.00 | 0.00 | 78 | 1009.0 |
| 20260510124019 | 60 | 300 | 2.0 | 7.0 | 0.00 | 0.00 | 0.00 | 78 | 1009.0 |
| 20260510123518 | 60 | 335 | 3.0 | 7.0 | 0.00 | 0.00 | 0.00 | 78 | 1008.9 |
| 20260510123018 | 60 | 334 | 2.0 | 5.0 | 0.00 | 0.00 | 0.00 | 78 | 1009.0 |
| 20260510122517 | 60 | 335 | 2.0 | 5.0 | 0.00 | 0.00 | 0.00 | 78 | 1009.0 |
| 20260510122016 | 60 | 271 | 2.0 | 5.0 | 0.00 | 0.00 | 0.00 | 78 | 1008.9 |
| 20260510121516 | 61 | 289 | 1.0 | 4.0 | 0.00 | 0.00 | 0.00 | 78 | 1008.9 |
| 20260510121016 | 61 | 336 | 2.0 | 5.0 | 0.00 | 0.00 | 0.00 | 78 | 1009.0 |
| 20260510120515 | 61 | 326 | 1.0 | 5.0 | 0.00 | 0.00 | 0.00 | 78 | 1008.9 |
| 20260510120015 | 61 | 283 | 2.0 | 5.0 | 0.00 | 0.00 | 0.00 | 78 | 1008.9 |
| 20260510115514 | 61 | 300 | 2.0 | 5.0 | 0.00 | 0.00 | 0.00 | 78 | 1008.9 |
| 20260510115014 | 61 | 342 | 2.0 | 5.0 | 0.00 | 0.00 | 0.00 | 78 | 1008.9 |
| 20260510114515 | 61 | 302 | 1.0 | 4.0 | 0.00 | 0.00 | 0.00 | 78 | 1008.9 |
| 20260510114015 | 61 | 286 | 2.0 | 3.0 | 0.00 | 0.00 | 0.00 | 78 | 1008.9 |
| 20260510113511 | 61 | 281 | 1.0 | 3.0 | 0.00 | 0.00 | 0.00 | 77 | 1008.9 |
| 20260510113014 | 61 | 284 | 1.0 | 4.0 | 0.00 | 0.00 | 0.00 | 77 | 1008.9 |
| 20260510112519 | 62 | 312 | 1.0 | 4.0 | 0.00 | 0.00 | 0.00 | 77 | 1008.9 |
| 20260510112010 | 62 | 285 | 1.0 | 3.0 | 0.00 | 0.00 | 0.00 | 77 | 1008.9 |
| 20260510111512 | 62 | 280 | 1.0 | 3.0 | 0.00 | 0.00 | 0.00 | 77 | 1008.9 |
| 20260510111011 | 62 | 257 | 1.0 | 3.0 | 0.00 | 0.00 | 0.00 | 76 | 1008.8 |
| 20260510110514 | 62 | 270 | 1.0 | 3.0 | 0.00 | 0.00 | 0.00 | 76 | 1008.7 |
| 20260510110011 | 62 | 264 | 1.0 | 3.0 | 0.00 | 0.00 | 0.00 | 76 | 1008.7 |
| 20260510105508 | 62 | 310 | 1.0 | 3.0 | 0.00 | 0.00 | 0.00 | 76 | 1008.7 |
| 20260510105011 | 63 | 296 | 1.0 | 3.0 | 0.00 | 0.00 | 0.00 | 75 | 1008.7 |
| 20260510104508 | 63 | 260 | 1.0 | 3.0 | 0.00 | 0.00 | 0.00 | 75 | 1008.7 |
| 20260510104007 | 63 | 264 | 1.0 | 3.0 | 0.00 | 0.00 | 0.00 | 75 | 1008.7 |
| 20260510103505 | 63 | 276 | 2.0 | 3.0 | 0.00 | 0.00 | 0.00 | 75 | 1008.7 |
| 20260510103005 | 63 | 276 | 1.0 | 3.0 | 0.00 | 0.00 | 0.00 | 74 | 1008.7 |
| 20260510102505 | 63 | 270 | 1.0 | 3.0 | 0.00 | 0.00 | 0.00 | 74 | 1008.6 |
| 20260510102002 | 63 | 277 | 0.0 | 3.0 | 0.00 | 0.00 | 0.00 | 74 | 1008.6 |
| 20260510101502 | 63 | 277 | 1.0 | 3.0 | 0.00 | 0.00 | 0.00 | 73 | 1008.6 |
| 20260510101002 | 64 | 278 | 1.0 | 3.0 | 0.00 | 0.00 | 0.00 | 74 | 1008.7 |
| 20260510100501 | 64 | 277 | 1.0 | 3.0 | 0.00 | 0.00 | 0.00 | 73 | 1008.7 |
| 20260510100001 | 64 | 278 | 1.0 | 3.0 | 0.00 | 0.00 | 0.00 | 73 | 1008.7 |
| 20260510095601 | 64 | 278 | 1.0 | 3.0 | 0.00 | 0.00 | 0.00 | 72 | 1008.7 |
| 20260510095100 | 64 | 276 | 0.0 | 2.0 | 0.00 | 0.00 | 0.00 | 72 | 1008.7 |
| 20260510094600 | 64 | 276 | 0.0 | 3.0 | 0.00 | 0.00 | 0.00 | 72 | 1008.7 |
| 20260510094059 | 64 | 276 | 1.0 | 3.0 | 0.00 | 0.00 | 0.00 | 72 | 1008.7 |
| 20260510093559 | 65 | 278 | 1.0 | 3.0 | 0.00 | 0.00 | 0.00 | 72 | 1008.7 |
| 20260510093058 | 65 | 281 | 1.0 | 3.0 | 0.00 | 0.00 | 0.00 | 71 | 1008.6 |
| 20260510092557 | 65 | 292 | 1.0 | 3.0 | 0.00 | 0.00 | 0.00 | 71 | 1008.6 |
| 20260510092057 | 65 | 284 | 1.0 | 3.0 | 0.00 | 0.00 | 0.00 | 71 | 1008.5 |
| 20260510091602 | 65 | 281 | 1.0 | 3.0 | 0.00 | 0.00 | 0.00 | 71 | 1008.5 |
| 20260510091056 | 65 | 274 | 1.0 | 3.0 | 0.00 | 0.00 | 0.00 | 71 | 1008.7 |
| 20260510090557 | 65 | 260 | 2.0 | 3.0 | 0.00 | 0.00 | 0.00 | 71 | 1008.6 |
| 20260510090104 | 65 | 287 | 0.0 | 3.0 | 0.00 | 0.00 | 0.00 | 70 | 1008.7 |
| 20260510085556 | 66 | 277 | 1.0 | 3.0 | 0.00 | 0.00 | 0.00 | 70 | 1008.7 |
| 20260510085052 | 66 | 293 | 1.0 | 3.0 | 0.00 | 0.00 | 0.00 | 70 | 1008.8 |
| 20260510084558 | 66 | 277 | 1.0 | 3.0 | 0.00 | 0.00 | 0.00 | 70 | 1008.8 |
| 20260510084051 | 66 | 277 | 1.0 | 2.0 | 0.00 | 0.00 | 0.00 | 69 | 1008.8 |
| 20260510083552 | 66 | 309 | 0.0 | 2.0 | 0.00 | 0.00 | 0.00 | 69 | 1008.9 |
| 20260510083051 | 66 | 270 | 1.0 | 3.0 | 0.00 | 0.00 | 0.00 | 69 | 1008.8 |
| 20260510082550 | 66 | 303 | 1.0 | 3.0 | 0.00 | 0.00 | 0.00 | 69 | 1008.8 |
| 20260510082050 | 66 | 308 | 1.0 | 3.0 | 0.00 | 0.00 | 0.00 | 69 | 1008.8 |
| 20260510081549 | 67 | 302 | 1.0 | 4.0 | 0.00 | 0.00 | 0.00 | 69 | 1008.8 |
| 20260510081049 | 67 | 295 | 2.0 | 4.0 | 0.00 | 0.00 | 0.00 | 69 | 1008.8 |
| 20260510080548 | 67 | 274 | 1.0 | 4.0 | 0.00 | 0.00 | 0.00 | 69 | 1008.9 |
| 20260510080054 | 67 | 270 | 1.0 | 4.0 | 0.00 | 0.00 | 0.00 | 69 | 1008.9 |
| 20260510075546 | 67 | 271 | 2.0 | 4.0 | 0.00 | 0.00 | 0.00 | 67 | 1008.9 |
| 20260510075045 | 68 | 290 | 0.0 | 3.0 | 0.00 | 0.00 | 0.00 | 66 | 1008.8 |
| 20260510074544 | 68 | 305 | 2.0 | 3.0 | 0.00 | 0.00 | 0.00 | 65 | 1008.8 |
| 20260510074045 | 68 | 343 | 0.0 | 4.0 | 0.00 | 0.00 | 0.00 | 64 | 1008.9 |
| 20260510073542 | 69 | 345 | 1.0 | 4.0 | 0.00 | 0.00 | 0.00 | 64 | 1008.9 |
| 20260510073043 | 69 | 341 | 1.0 | 5.0 | 0.00 | 0.00 | 0.00 | 64 | 1008.9 |
| 20260510072541 | 69 | 324 | 2.0 | 5.0 | 0.00 | 0.00 | 0.00 | 63 | 1008.9 |
| 20260510072040 | 69 | 317 | 1.0 | 4.0 | 0.00 | 0.00 | 0.00 | 63 | 1008.8 |
| 20260510071541 | 69 | 326 | 1.0 | 5.0 | 0.00 | 0.00 | 0.00 | 63 | 1008.9 |
| 20260510071037 | 69 | 331 | 1.0 | 5.0 | 0.00 | 0.00 | 0.00 | 63 | 1008.7 |
| 20260510070537 | 69 | 62 | 2.0 | 9.0 | 0.00 | 0.00 | 0.00 | 63 | 1008.7 |
| 20260510070044 | 70 | 324 | 2.0 | 9.0 | 0.00 | 0.00 | 0.00 | 63 | 1008.7 |
| 20260510065536 | 70 | 32 | 2.0 | 8.0 | 0.00 | 0.00 | 0.00 | 63 | 1008.7 |
| 20260510065036 | 70 | 345 | 3.0 | 8.0 | 0.00 | 0.00 | 0.00 | 63 | 1008.7 |
| 20260510064556 | 70 | 354 | 4.0 | 9.0 | 0.00 | 0.00 | 0.00 | 63 | 1008.7 |
| 20260510064036 | 70 | 323 | 2.0 | 5.0 | 0.00 | 0.00 | 0.00 | 64 | 1008.7 |
| 20260510063536 | 70 | 354 | 2.0 | 6.0 | 0.00 | 0.00 | 0.00 | 65 | 1008.8 |
| 20260510063043 | 70 | 328 | 2.0 | 6.0 | 0.00 | 0.00 | 0.00 | 65 | 1008.8 |
| 20260510062535 | 70 | 324 | 3.0 | 6.0 | 0.00 | 0.00 | 0.00 | 66 | 1008.9 |
| 20260510062037 | 70 | 318 | 2.0 | 8.0 | 0.00 | 0.00 | 0.00 | 65 | 1008.8 |
| 20260510061545 | 71 | 319 | 3.0 | 8.0 | 0.00 | 0.00 | 0.00 | 65 | 1008.8 |
| 20260510061035 | 71 | 327 | 3.0 | 8.0 | 0.00 | 0.00 | 0.00 | 64 | 1008.7 |
| 20260510060535 | 71 | 334 | 2.0 | 5.0 | 0.00 | 0.00 | 0.00 | 64 | 1008.8 |
| 20260510060040 | 71 | 329 | 2.0 | 5.0 | 0.00 | 0.00 | 0.00 | 64 | 1008.8 |
| 20260510055534 | 71 | 314 | 2.0 | 6.0 | 0.00 | 0.00 | 0.00 | 64 | 1008.8 |
| 20260510055034 | 72 | 335 | 3.0 | 6.0 | 0.00 | 0.00 | 0.00 | 63 | 1008.8 |
| 20260510054535 | 72 | 326 | 3.0 | 8.0 | 0.00 | 0.00 | 0.00 | 63 | 1008.8 |
| 20260510054034 | 72 | 331 | 2.0 | 8.0 | 0.00 | 0.00 | 0.00 | 63 | 1008.8 |
| 20260510053536 | 72 | 348 | 3.0 | 8.0 | 0.00 | 0.00 | 0.00 | 63 | 1008.8 |
| 20260510053037 | 72 | 332 | 2.0 | 4.0 | 0.00 | 0.00 | 0.00 | 62 | 1008.7 |
| 20260510052534 | 73 | 339 | 2.0 | 4.0 | 0.00 | 0.00 | 0.00 | 61 | 1008.7 |
| 20260510052033 | 73 | 359 | 2.0 | 6.0 | 0.00 | 0.00 | 0.00 | 61 | 1008.6 |
| 20260510051533 | 73 | 322 | 2.0 | 6.0 | 0.00 | 0.00 | 0.00 | 61 | 1008.6 |
| 20260510051032 | 74 | 316 | 2.0 | 6.0 | 0.00 | 0.00 | 0.00 | 60 | 1008.6 |
| 20260510050532 | 74 | 337 | 2.0 | 6.0 | 0.00 | 0.00 | 0.00 | 60 | 1008.6 |
| 20260510050032 | 74 | 306 | 2.0 | 5.0 | 0.00 | 0.00 | 0.00 | 59 | 1008.5 |
| 20260510045532 | 75 | 332 | 2.0 | 7.0 | 0.00 | 0.00 | 0.00 | 59 | 1008.5 |
| 20260510045033 | 75 | 262 | 3.0 | 8.0 | 0.00 | 0.00 | 0.00 | 58 | 1008.5 |
| 20260510044535 | 75 | 346 | 2.0 | 6.0 | 0.00 | 0.00 | 0.00 | 58 | 1008.4 |
| 20260510044032 | 75 | 302 | 2.0 | 6.0 | 0.00 | 0.00 | 0.00 | 57 | 1008.3 |
| 20260510043532 | 76 | 320 | 3.0 | 8.0 | 0.00 | 0.00 | 0.00 | 56 | 1008.3 |
| 20260510043032 | 76 | 329 | 3.0 | 8.0 | 0.00 | 0.00 | 0.00 | 55 | 1008.2 |
| 20260510042532 | 77 | 272 | 4.0 | 8.0 | 0.00 | 0.00 | 0.00 | 54 | 1008.1 |
| 20260510042030 | 77 | 305 | 2.0 | 8.0 | 0.00 | 0.00 | 0.00 | 53 | 1008.1 |
| 20260510041533 | 78 | 337 | 3.0 | 9.0 | 0.00 | 0.00 | 0.00 | 53 | 1008.1 |
| 20260510041030 | 78 | 295 | 5.0 | 9.0 | 0.00 | 0.00 | 0.00 | 52 | 1008.0 |
| 20260510040530 | 78 | 345 | 4.0 | 9.0 | 0.00 | 0.00 | 0.00 | 51 | 1008.0 |
| 20260510040030 | 79 | 318 | 3.0 | 8.0 | 0.00 | 0.00 | 0.00 | 50 | 1008.0 |
| 20260510035529 | 79 | 354 | 3.0 | 8.0 | 0.00 | 0.00 | 0.00 | 50 | 1007.9 |
| 20260510035029 | 79 | 326 | 3.0 | 9.0 | 0.00 | 0.00 | 0.00 | 49 | 1007.8 |
| 20260510034529 | 79 | 334 | 3.0 | 8.0 | 0.00 | 0.00 | 0.00 | 48 | 1007.8 |
| 20260510034029 | 80 | 285 | 2.0 | 8.0 | 0.00 | 0.00 | 0.00 | 48 | 1007.7 |
| 20260510033528 | 80 | 288 | 3.0 | 8.0 | 0.00 | 0.00 | 0.00 | 47 | 1007.6 |
| 20260510033028 | 80 | 313 | 3.0 | 8.0 | 0.00 | 0.00 | 0.00 | 47 | 1007.5 |
| 20260510032528 | 81 | 305 | 3.0 | 6.0 | 0.00 | 0.00 | 0.00 | 46 | 1007.5 |
| 20260510032027 | 81 | 293 | 3.0 | 6.0 | 0.00 | 0.00 | 0.00 | 46 | 1007.5 |
| 20260510031533 | 81 | 318 | 2.0 | 5.0 | 0.00 | 0.00 | 0.00 | 45 | 1007.5 |
| 20260510031028 | 82 | 295 | 2.0 | 8.0 | 0.00 | 0.00 | 0.00 | 44 | 1007.4 |
| 20260510030527 | 82 | 287 | 4.0 | 8.0 | 0.00 | 0.00 | 0.00 | 44 | 1007.4 |
| 20260510030027 | 82 | 332 | 3.0 | 8.0 | 0.00 | 0.00 | 0.00 | 43 | 1007.3 |
| 20260510025527 | 83 | 332 | 2.0 | 10.0 | 0.00 | 0.00 | 0.00 | 42 | 1007.2 |
| 20260510025028 | 83 | 326 | 4.0 | 10.0 | 0.00 | 0.00 | 0.00 | 41 | 1007.3 |
| 20260510024532 | 84 | 305 | 3.0 | 10.0 | 0.00 | 0.00 | 0.00 | 41 | 1007.2 |
| 20260510024026 | 84 | 337 | 5.0 | 10.0 | 0.00 | 0.00 | 0.00 | 40 | 1007.3 |
| 20260510023525 | 84 | 319 | 5.0 | 11.0 | 0.00 | 0.00 | 0.00 | 40 | 1007.2 |
| 20260510023026 | 85 | 305 | 5.0 | 11.0 | 0.00 | 0.00 | 0.00 | 39 | 1007.2 |
| 20260510022525 | 85 | 329 | 5.0 | 11.0 | 0.00 | 0.00 | 0.00 | 40 | 1007.2 |
| 20260510022025 | 86 | 332 | 2.0 | 9.0 | 0.00 | 0.00 | 0.00 | 40 | 1007.2 |
| 20260510021524 | 86 | 324 | 4.0 | 9.0 | 0.00 | 0.00 | 0.00 | 40 | 1007.2 |
| 20260510021027 | 86 | 303 | 3.0 | 11.0 | 0.00 | 0.00 | 0.00 | 41 | 1007.3 |
| 20260510020524 | 86 | 298 | 5.0 | 11.0 | 0.00 | 0.00 | 0.00 | 41 | 1007.2 |
| 20260510020023 | 86 | 322 | 4.0 | 12.0 | 0.00 | 0.00 | 0.00 | 40 | 1007.2 |
| 20260510015525 | 87 | 308 | 4.0 | 12.0 | 0.00 | 0.00 | 0.00 | 39 | 1007.3 |
| 20260510015022 | 87 | 303 | 4.0 | 9.0 | 0.00 | 0.00 | 0.00 | 38 | 1007.3 |
| 20260510014528 | 87 | 334 | 4.0 | 11.0 | 0.00 | 0.00 | 0.00 | 37 | 1007.3 |
| 20260510014022 | 87 | 316 | 4.0 | 11.0 | 0.00 | 0.00 | 0.00 | 38 | 1007.3 |
| 20260510013524 | 88 | 348 | 5.0 | 12.0 | 0.00 | 0.00 | 0.00 | 37 | 1007.3 |
| 20260510013024 | 88 | 322 | 4.0 | 13.0 | 0.00 | 0.00 | 0.00 | 36 | 1007.2 |
| 20260510012522 | 88 | 359 | 6.0 | 13.0 | 0.00 | 0.00 | 0.00 | 35 | 1007.3 |
| 20260510012021 | 88 | 53 | 2.0 | 11.0 | 0.00 | 0.00 | 0.00 | 37 | 1007.2 |
| 20260510011523 | 88 | 320 | 3.0 | 12.0 | 0.00 | 0.00 | 0.00 | 38 | 1007.3 |
| 20260510011020 | 88 | 303 | 6.0 | 12.0 | 0.00 | 0.00 | 0.00 | 37 | 1007.2 |
| 20260510010522 | 88 | 332 | 5.0 | 12.0 | 0.00 | 0.00 | 0.00 | 37 | 1007.2 |
| 20260510010020 | 88 | 308 | 4.0 | 11.0 | 0.00 | 0.00 | 0.00 | 38 | 1007.2 |
| 20260510005520 | 88 | 342 | 4.0 | 11.0 | 0.00 | 0.00 | 0.00 | 38 | 1007.3 |
| 20260510005020 | 88 | 349 | 4.0 | 11.0 | 0.00 | 0.00 | 0.00 | 35 | 1007.3 |
| 20260510004519 | 89 | 77 | 5.0 | 11.0 | 0.00 | 0.00 | 0.00 | 35 | 1007.3 |
| 20260510004023 | 89 | 319 | 3.0 | 11.0 | 0.00 | 0.00 | 0.00 | 36 | 1007.3 |
| 20260510003530 | 88 | 303 | 3.0 | 13.0 | 0.00 | 0.00 | 0.00 | 37 | 1007.3 |
| 20260510003020 | 88 | 331 | 4.0 | 13.0 | 0.00 | 0.00 | 0.00 | 35 | 1007.3 |
| 20260510002519 | 89 | 338 | 6.0 | 13.0 | 0.00 | 0.00 | 0.00 | 35 | 1007.3 |
| 20260510002019 | 89 | 278 | 4.0 | 13.0 | 0.00 | 0.00 | 0.00 | 36 | 1007.4 |
| 20260510001519 | 89 | 269 | 4.0 | 13.0 | 0.00 | 0.00 | 0.00 | 36 | 1007.3 |
| 20260510001018 | 89 | 321 | 4.0 | 12.0 | 0.00 | 0.00 | 0.00 | 36 | 1007.3 |
| 20260510000517 | 89 | 288 | 6.0 | 13.0 | 0.00 | 0.00 | 0.00 | 33 | 1007.5 |
| 20260510000018 | 89 | 301 | 6.0 | 13.0 | 0.00 | 0.00 | 0.00 | 31 | 1007.5 |
| 20260509235517 | 89 | 278 | 6.0 | 13.0 | 0.00 | 0.00 | 0.00 | 31 | 1007.5 |
| 20260509235017 | 90 | 282 | 5.0 | 13.0 | 0.00 | 0.00 | 0.00 | 33 | 1007.5 |
| 20260509234530 | 90 | 307 | 4.0 | 11.0 | 0.00 | 0.00 | 0.00 | 33 | 1007.6 |
| 20260509234019 | 90 | 284 | 5.0 | 10.0 | 0.00 | 0.00 | 0.00 | 31 | 1007.6 |
| 20260509233516 | 89 | 340 | 4.0 | 12.0 | 0.00 | 0.00 | 0.00 | 32 | 1007.6 |
| 20260509233030 | 90 | 305 | 4.0 | 12.0 | 0.00 | 0.00 | 0.00 | 33 | 1007.6 |
| 20260509232515 | 90 | 335 | 2.0 | 12.0 | 0.00 | 0.00 | 0.00 | 33 | 1007.6 |
| 20260509232015 | 90 | 297 | 5.0 | 10.0 | 0.00 | 0.00 | 0.00 | 33 | 1007.6 |
| 20260509231513 | 90 | 307 | 3.0 | 10.0 | 0.00 | 0.00 | 0.00 | 34 | 1007.6 |
| 20260509231013 | 89 | 266 | 3.0 | 12.0 | 0.00 | 0.00 | 0.00 | 37 | 1007.7 |
| 20260509230513 | 89 | 303 | 4.0 | 10.0 | 0.00 | 0.00 | 0.00 | 36 | 1007.7 |
| 20260509230012 | 90 | 308 | 5.0 | 11.0 | 0.00 | 0.00 | 0.00 | 37 | 1007.7 |
| 20260509225512 | 90 | 306 | 4.0 | 11.0 | 0.00 | 0.00 | 0.00 | 37 | 1007.7 |
| 20260509225011 | 90 | 321 | 4.0 | 10.0 | 0.00 | 0.00 | 0.00 | 37 | 1007.8 |
| 20260509224514 | 89 | 279 | 4.0 | 10.0 | 0.00 | 0.00 | 0.00 | 37 | 1007.8 |
| 20260509224011 | 89 | 338 | 4.0 | 11.0 | 0.00 | 0.00 | 0.00 | 38 | 1007.9 |
| 20260509223509 | 89 | 335 | 3.0 | 9.0 | 0.00 | 0.00 | 0.00 | 38 | 1008.0 |
| 20260509223007 | 89 | 4 | 4.0 | 12.0 | 0.00 | 0.00 | 0.00 | 37 | 1008.2 |
| 20260509222508 | 89 | 4 | 3.0 | 12.0 | 0.00 | 0.00 | 0.00 | 38 | 1008.2 |
| 20260509222008 | 89 | 320 | 3.0 | 11.0 | 0.00 | 0.00 | 0.00 | 37 | 1008.3 |
| 20260509221505 | 89 | 326 | 4.0 | 9.0 | 0.00 | 0.00 | 0.00 | 37 | 1008.3 |
| 20260509221005 | 89 | 326 | 4.0 | 11.0 | 0.00 | 0.00 | 0.00 | 39 | 1008.3 |
| 20260509220504 | 88 | 336 | 6.0 | 11.0 | 0.00 | 0.00 | 0.00 | 38 | 1008.4 |
| 20260509220005 | 88 | 290 | 3.0 | 12.0 | 0.00 | 0.00 | 0.00 | 38 | 1008.5 |
| 20260509215501 | 88 | 289 | 4.0 | 12.0 | 0.00 | 0.00 | 0.00 | 39 | 1008.5 |
| 20260509215003 | 87 | 31 | 4.0 | 11.0 | 0.00 | 0.00 | 0.00 | 39 | 1008.6 |
| 20260509214601 | 88 | 333 | 5.0 | 10.0 | 0.00 | 0.00 | 0.00 | 40 | 1008.6 |
| 20260509214100 | 88 | 301 | 4.0 | 10.0 | 0.00 | 0.00 | 0.00 | 41 | 1008.7 |
| 20260509213559 | 87 | 37 | 3.0 | 10.0 | 0.00 | 0.00 | 0.00 | 41 | 1008.7 |
| 20260509213059 | 87 | 307 | 4.0 | 10.0 | 0.00 | 0.00 | 0.00 | 40 | 1008.7 |
| 20260509212558 | 87 | 335 | 5.0 | 16.0 | 0.00 | 0.00 | 0.00 | 39 | 1008.8 |
| 20260509212057 | 87 | 354 | 5.0 | 16.0 | 0.00 | 0.00 | 0.00 | 40 | 1008.9 |
| 20260509211601 | 87 | 337 | 5.0 | 12.0 | 0.00 | 0.00 | 0.00 | 41 | 1008.9 |
| 20260509211057 | 87 | 314 | 2.0 | 17.0 | 0.00 | 0.00 | 0.00 | 41 | 1008.9 |
| 20260509210559 | 87 | 50 | 4.0 | 17.0 | 0.00 | 0.00 | 0.00 | 42 | 1008.9 |
| 20260509210108 | 87 | 60 | 3.0 | 12.0 | 0.00 | 0.00 | 0.00 | 42 | 1009.0 |
| 20260509205558 | 87 | 331 | 4.0 | 9.0 | 0.00 | 0.00 | 0.00 | 41 | 1009.0 |
| 20260509205055 | 87 | 329 | 4.0 | 15.0 | 0.00 | 0.00 | 0.00 | 42 | 1009.0 |
| 20260509204555 | 87 | 318 | 5.0 | 15.0 | 0.00 | 0.00 | 0.00 | 41 | 1009.1 |
| 20260509204054 | 87 | 32 | 3.0 | 13.0 | 0.00 | 0.00 | 0.00 | 42 | 1009.2 |
| 20260509203555 | 86 | 359 | 4.0 | 13.0 | 0.00 | 0.00 | 0.00 | 42 | 1009.3 |
| 20260509203051 | 85 | 15 | 3.0 | 10.0 | 0.00 | 0.00 | 0.00 | 43 | 1009.3 |
| 20260509202552 | 85 | 329 | 5.0 | 12.0 | 0.00 | 0.00 | 0.00 | 43 | 1009.4 |
| 20260509202049 | 84 | 235 | 4.0 | 12.0 | 0.00 | 0.00 | 0.00 | 43 | 1009.5 |
| 20260509201557 | 84 | 302 | 7.0 | 12.0 | 0.00 | 0.00 | 0.00 | 44 | 1009.5 |
| 20260509201047 | 84 | 325 | 5.0 | 12.0 | 0.00 | 0.00 | 0.00 | 45 | 1009.6 |
| 20260509200546 | 84 | 340 | 3.0 | 13.0 | 0.00 | 0.00 | 0.00 | 46 | 1009.6 |
| 20260509200051 | 84 | 354 | 6.0 | 13.0 | 0.00 | 0.00 | 0.00 | 46 | 1009.7 |
| 20260509195548 | 83 | 214 | 6.0 | 13.0 | 0.00 | 0.00 | 0.00 | 47 | 1009.8 |
| 20260509195044 | 83 | 303 | 3.0 | 12.0 | 0.00 | 0.00 | 0.00 | 48 | 1009.9 |
| 20260509194542 | 82 | 312 | 5.0 | 11.0 | 0.00 | 0.00 | 0.00 | 49 | 1009.8 |
| 20260509194043 | 82 | 359 | 5.0 | 14.0 | 0.00 | 0.00 | 0.00 | 49 | 1009.9 |
| 20260509193541 | 82 | 29 | 6.0 | 14.0 | 0.00 | 0.00 | 0.00 | 50 | 1009.9 |
| 20260509193045 | 81 | 322 | 2.0 | 11.0 | 0.00 | 0.00 | 0.00 | 50 | 1010.0 |
| 20260509192540 | 81 | 10 | 4.0 | 11.0 | 0.00 | 0.00 | 0.00 | 51 | 1010.1 |
| 20260509192036 | 80 | 330 | 3.0 | 12.0 | 0.00 | 0.00 | 0.00 | 51 | 1010.2 |
| 20260509191539 | 81 | 293 | 7.0 | 12.0 | 0.00 | 0.00 | 0.00 | 50 | 1010.3 |
| 20260509191034 | 81 | 284 | 6.0 | 11.0 | 0.00 | 0.00 | 0.00 | 50 | 1010.3 |
| 20260509190532 | 80 | 285 | 2.0 | 11.0 | 0.00 | 0.00 | 0.00 | 52 | 1010.4 |
| 20260509190035 | 80 | 317 | 5.0 | 11.0 | 0.00 | 0.00 | 0.00 | 49 | 1010.4 |
| 20260509185531 | 80 | 285 | 4.0 | 9.0 | 0.00 | 0.00 | 0.00 | 51 | 1010.5 |
| 20260509185029 | 80 | 264 | 5.0 | 10.0 | 0.00 | 0.00 | 0.00 | 50 | 1010.5 |
| 20260509184539 | 79 | 324 | 4.0 | 11.0 | 0.00 | 0.00 | 0.00 | 50 | 1010.5 |
| 20260509184027 | 79 | 325 | 4.0 | 11.0 | 0.00 | 0.00 | 0.00 | 51 | 1010.6 |
| 20260509183526 | 79 | 348 | 4.0 | 9.0 | 0.00 | 0.00 | 0.00 | 50 | 1010.6 |
| 20260509183032 | 78 | 335 | 1.0 | 8.0 | 0.00 | 0.00 | 0.00 | 51 | 1010.6 |
| 20260509182522 | 77 | 324 | 3.0 | 8.0 | 0.00 | 0.00 | 0.00 | 51 | 1010.6 |
| 20260509182021 | 77 | 359 | 3.0 | 8.0 | 0.00 | 0.00 | 0.00 | 51 | 1010.7 |
| 20260509181520 | 77 | 295 | 1.0 | 8.0 | 0.00 | 0.00 | 0.00 | 51 | 1010.7 |
| 20260509181019 | 77 | 115 | 2.0 | 8.0 | 0.00 | 0.00 | 0.00 | 53 | 1010.7 |
| 20260509180519 | 77 | 296 | 4.0 | 8.0 | 0.00 | 0.00 | 0.00 | 52 | 1010.8 |
| 20260509180019 | 76 | 321 | 4.0 | 9.0 | 0.00 | 0.00 | 0.00 | 52 | 1010.8 |
| 20260509175522 | 76 | 345 | 3.0 | 9.0 | 0.00 | 0.00 | 0.00 | 52 | 1010.8 |
| 20260509175014 | 75 | 297 | 2.0 | 9.0 | 0.00 | 0.00 | 0.00 | 54 | 1010.9 |
| 20260509174516 | 75 | 314 | 3.0 | 9.0 | 0.00 | 0.00 | 0.00 | 54 | 1010.9 |
| 20260509174011 | 74 | 278 | 2.0 | 9.0 | 0.00 | 0.00 | 0.00 | 56 | 1011.0 |
| 20260509173517 | 74 | 337 | 5.0 | 9.0 | 0.00 | 0.00 | 0.00 | 55 | 1010.9 |
| 20260509173015 | 73 | 328 | 3.0 | 8.0 | 0.00 | 0.00 | 0.00 | 57 | 1010.9 |
| 20260509172507 | 73 | 312 | 2.0 | 10.0 | 0.00 | 0.00 | 0.00 | 57 | 1011.0 |
| 20260509172005 | 72 | 260 | 4.0 | 10.0 | 0.00 | 0.00 | 0.00 | 57 | 1011.0 |
| 20260509171505 | 72 | 333 | 3.0 | 10.0 | 0.00 | 0.00 | 0.00 | 57 | 1011.0 |
| 20260509171004 | 72 | 260 | 4.0 | 10.0 | 0.00 | 0.00 | 0.00 | 58 | 1011.1 |
| 20260509170501 | 71 | 341 | 2.0 | 10.0 | 0.00 | 0.00 | 0.00 | 60 | 1011.1 |
| 20260509170106 | 71 | 256 | 4.0 | 10.0 | 0.00 | 0.00 | 0.00 | 59 | 1011.0 |
| 20260509165602 | 71 | 266 | 3.0 | 9.0 | 0.00 | 0.00 | 0.00 | 59 | 1011.1 |
| 20260509165057 | 71 | 274 | 4.0 | 9.0 | 0.00 | 0.00 | 0.00 | 60 | 1011.2 |
| 20260509164556 | 70 | 264 | 5.0 | 9.0 | 0.00 | 0.00 | 0.00 | 61 | 1011.1 |
| 20260509164058 | 69 | 283 | 1.0 | 10.0 | 0.00 | 0.00 | 0.00 | 62 | 1011.0 |
| 20260509163555 | 69 | 268 | 4.0 | 10.0 | 0.00 | 0.00 | 0.00 | 62 | 1011.1 |
| 20260509163102 | 69 | 241 | 3.0 | 8.0 | 0.00 | 0.00 | 0.00 | 62 | 1011.1 |
| 20260509162552 | 69 | 354 | 2.0 | 9.0 | 0.00 | 0.00 | 0.00 | 63 | 1011.2 |
| 20260509162051 | 68 | 245 | 4.0 | 9.0 | 0.00 | 0.00 | 0.00 | 63 | 1011.3 |
| 20260509161554 | 68 | 307 | 2.0 | 9.0 | 0.00 | 0.00 | 0.00 | 65 | 1011.3 |
| 20260509161051 | 67 | 310 | 4.0 | 9.0 | 0.00 | 0.00 | 0.00 | 65 | 1011.3 |
| 20260509160547 | 67 | 298 | 4.0 | 8.0 | 0.00 | 0.00 | 0.00 | 66 | 1011.3 |
| 20260509160046 | 66 | 343 | 4.0 | 8.0 | 0.00 | 0.00 | 0.00 | 66 | 1011.3 |
| 20260509155546 | 66 | 330 | 3.0 | 9.0 | 0.00 | 0.00 | 0.00 | 67 | 1011.3 |
| 20260509155047 | 66 | 354 | 3.0 | 9.0 | 0.00 | 0.00 | 0.00 | 67 | 1011.4 |
| 20260509154542 | 65 | 274 | 3.0 | 10.0 | 0.00 | 0.00 | 0.00 | 68 | 1011.3 |
| 20260509154040 | 65 | 270 | 6.0 | 10.0 | 0.00 | 0.00 | 0.00 | 68 | 1011.3 |
| 20260509153539 | 64 | 254 | 3.0 | 7.0 | 0.00 | 0.00 | 0.00 | 69 | 1011.3 |
| 20260509153043 | 64 | 330 | 3.0 | 9.0 | 0.00 | 0.00 | 0.00 | 70 | 1011.3 |
| 20260509152537 | 64 | 341 | 3.0 | 9.0 | 0.00 | 0.00 | 0.00 | 71 | 1011.3 |
| 20260509152037 | 63 | 305 | 2.0 | 9.0 | 0.00 | 0.00 | 0.00 | 72 | 1011.3 |
| 20260509151534 | 63 | 319 | 5.0 | 9.0 | 0.00 | 0.00 | 0.00 | 73 | 1011.3 |
| 20260509151033 | 62 | 310 | 3.0 | 6.0 | 0.00 | 0.00 | 0.00 | 74 | 1011.2 |
| 20260509150532 | 62 | 327 | 3.0 | 6.0 | 0.00 | 0.00 | 0.00 | 74 | 1011.2 |
| 20260509150031 | 62 | 354 | 2.0 | 8.0 | 0.00 | 0.00 | 0.00 | 75 | 1011.2 |
| 20260509145533 | 61 | 329 | 3.0 | 9.0 | 0.00 | 0.00 | 0.00 | 75 | 1011.2 |